Location: Laval
(48.0785°N, 0.7670°W)
Time: 00:52:24
(UTC+02:00)

ISS - Visible Passes

Search period start: 08 May 2021 00:00
Search period end: 18 May 2021 00:00
Orbit: 418 x 421 km, 51.6° (Epoch: 07 May)

Date Brightness Start Highest point End Pass type
(mag) Time Alt. Az. Time Alt. Az. Time Alt. Az.
08 May -1.6 02:49:24 22° ENE 02:49:24 22° ENE 02:50:43 10° ENE visible
08 May -2.8 04:22:20 21° WNW 04:24:18 47° N 04:27:35 10° ENE visible
09 May -3.1 03:36:22 49° NW 03:36:48 54° NNW 03:40:08 10° ENE visible
09 May -2.7 05:10:40 10° WNW 05:13:58 46° N 05:17:15 10° E visible
10 May -2.5 02:50:23 39° NE 02:50:23 39° NE 02:52:41 10° ENE visible
10 May -2.6 04:23:18 11° WNW 04:26:26 43° N 04:29:42 10° ENE visible
11 May -1.3 02:04:21 17° ENE 02:04:21 17° ENE 02:05:15 10° ENE visible
11 May -2.6 03:37:17 24° WNW 03:38:54 43° N 03:42:10 10° ENE visible
11 May -3.3 05:12:40 10° WNW 05:16:02 65° NNE 05:19:24 10° E visible
12 May -2.8 02:51:12 46° NNW 02:51:23 47° N 02:54:40 10° ENE visible
12 May -3.0 04:25:13 10° WNW 04:28:33 53° NNE 04:31:52 10° E visible
13 May -2.3 02:05:02 34° NE 02:05:02 34° NE 02:07:12 10° ENE visible
13 May -2.7 03:37:57 11° WNW 03:41:02 46° N 03:44:19 10° E visible
13 May -3.8 05:14:37 10° WNW 05:17:59 69° SSW 05:21:21 10° ESE visible
14 May -1.6 01:18:38 19° ENE 01:18:38 19° ENE 01:19:45 10° ENE visible
14 May -2.6 02:51:31 20° WNW 02:53:30 43° N 02:56:46 10° ENE visible
14 May -3.8 04:27:10 10° WNW 04:30:33 85° NNE 04:33:56 10° ESE visible
14 May -2.5 22:49:51 10° S 22:52:25 21° SE 22:55:01 10° E visible
15 May -3.8 00:25:32 10° WSW 00:28:55 86° NNW 00:32:18 10° ENE visible
15 May -2.6 02:02:42 10° WNW 02:05:58 43° N 02:09:14 10° ENE visible
15 May -3.4 03:39:43 10° WNW 03:43:06 66° NNE 03:46:28 10° E visible
15 May -3.0 05:16:43 10° W 05:19:46 31° SW 05:22:47 10° SSE visible
15 May -3.9 23:38:08 10° SW 23:41:29 68° SSE 23:44:51 10° ENE visible
16 May -2.7 01:15:10 10° W 01:18:26 46° N 01:21:43 10° ENE visible
16 May -3.0 02:52:16 10° WNW 02:55:35 53° NNE 02:58:55 10° E visible
16 May -3.6 04:29:09 10° WNW 04:32:25 46° SSW 04:35:40 10° SE visible
16 May -3.5 22:50:51 10° SW 22:54:06 46° SSE 22:57:21 10° ENE visible
17 May -3.0 00:27:36 10° W 00:30:55 53° NNW 00:34:14 10° ENE visible
17 May -2.7 02:04:48 10° WNW 02:08:05 46° N 02:11:22 10° E visible
17 May -3.9 03:41:40 10° WNW 03:45:05 68° SSW 03:48:23 10° SE visible
17 May -2.0 05:19:32 10° WSW 05:21:20 14° SW 05:23:08 10° SSW visible
17 May -3.4 23:40:04 10° W 23:43:25 66° NNW 23:46:47 10° ENE visible
